Location: Kitchener
(43.4500°N, 80.5000°W)
Time: 07:37:09
(UTC-04:00)

Cosmos 1939 Rocket - Visible Passes

Search period start: 19 April 2018 00:00
Search period end: 29 April 2018 00:00
Orbit: 533 x 585 km, 97.5° (Epoch: 18 April)

Date Brightness Start Highest point End Pass type
(mag) Time Alt. Az. Time Alt. Az. Time Alt. Az.
19 Apr 3.1 21:17:24 10° S 21:21:14 67° W 21:25:08 10° NNW visible
20 Apr 3.0 21:15:59 10° S 21:19:49 70° WSW 21:23:45 10° NNW visible
21 Apr 3.0 21:14:34 10° S 21:18:25 72° WSW 21:22:20 10° NNW visible
22 Apr 3.0 21:13:09 10° S 21:17:01 75° WSW 21:20:57 10° NNW visible
23 Apr 2.9 21:11:44 10° S 21:15:36 78° WSW 21:19:33 10° NNW visible
24 Apr 2.9 21:10:19 10° S 21:14:11 81° WSW 21:18:09 10° NNW visible
25 Apr 2.8 21:08:54 10° SSE 21:12:46 84° WSW 21:16:45 10° NNW visible
26 Apr 2.8 21:07:29 10° SSE 21:11:22 87° WSW 21:15:21 10° NNW visible
27 Apr 2.8 21:06:04 10° SSE 21:09:58 90° ENE 21:13:57 10° NNW visible
28 Apr 2.8 21:04:39 10° SSE 21:08:34 87° ENE 21:12:33 10° NNW visible
